Regional Weather Roundup
Issued by NWS Wakefield, VA

Home | Current Version | Previous Version | Graphics & Text | Print | Product List | Glossary On
Versions: 1 2 3 4 5 6 7 8 9 10 11 12 13 14 15 16 17 18 19 20 21 22 23 24 25 26 27 28 29 30 31 32 33 34 35 36 37 38 39 40 41 42 43 44 45 46 47 48 49 50
000
ASUS41 KAKQ 290915
RWRAKQ

REGIONAL WEATHER ROUNDUP
NATIONAL WEATHER SERVICE WAKEFIELD VA
500 AM EDT FRI APR 29 2016

Note: "fair" indicates few or no clouds below 12,000 feet with no
significant weather and/or obstructions to visibility. * = Denotes
station may not report precipitation (e.g., rain,snow,etc.),
thunder or fog.

VAZ042-051-052>054-056-291000-
NORTHERN VIRGINIA

CITY           SKY/WX    TMP DP  RH WIND       PRES   REMARKS
WASH NATIONAL  CLOUDY    48  46  93 E7        30.02R FOG
DULLES         CLOUDY    46  44  93 NE5       30.01R FOG
FORT BELVOIR   CLOUDY    47  46  94 CALM      30.01S
QUANTICO       CLOUDY    50  47  89 E10       30.02R
FREDERICKSBRG* CLOUDY    49  49 100 NE3       29.99F
STAFFORD*      CLOUDY    47  46  95 NE3       30.04S FOG
WARRENTON      CLOUDY    47  43  85 NE3       30.01R HAZE
CULPEPER*      DRIZZLE   48  47  99 CALM      30.02R
MANASSAS*      CLOUDY    46  46 100 CALM      30.01S
LEESBURG*      LGT RAIN  46  46 100 CALM      30.02R
WINCHESTER     CLOUDY    45  45 100 E5        30.00R FOG
FRONT ROYAL*   CLOUDY    45  45 100 NE3       29.99R
LURAY*         CLOUDY    46  46 100 NE3       29.98R FOG
$$

VAZ048-049-060>072-079>083-291000-
CENTRAL AND SOUTH CENTRAL VIRGINIA

CITY           SKY/WX    TMP DP  RH WIND       PRES   REMARKS
RICHMOND       CLOUDY    50  50 100 N7        29.98R FOG
CHESTERFIELD*  CLOUDY    52  39  62 N5        29.99R
PETERSBURG*    DRIZZLE   53  53 100 N7        29.98R
HANOVER        CLOUDY    50  48  93 CALM      30.00R
TAPPAHANNOCK*  CLOUDY    51  51 100 N7        29.98S
QUINTON*       CLOUDY    51  51 100 N7        29.97R FOG
CHARLOTTSVILLE CLOUDY    50  48  93 NE3       29.99R FOG
GORDONSVILLE*  CLOUDY    49  49 100 CALM      30.00R FOG
ORANGE*        LGT RAIN  50  50 100 CALM      30.01S
LOUISA*        CLOUDY    54  52  94 NE3       29.98S FOG
BUMPASS*       CLOUDY    49  49  99 CALM      29.99S
FARMVILLE*     FOG       55  55 100 N3        29.97S VSB 1
CREWE*         CLOUDY    53  53 100 N5        29.97S
FORT PICKETT*  NOT AVBL
CHASE CITY*    CLOUDY    55  54  94 CALM      29.97R
CLARKSVILLE*   CLOUDY    55  55 100 CALM      29.96R
SOUTH HILL*    CLOUDY    55  55  98 N6        30.01S
LAWRENCEVILLE* CLOUDY    55  55 100 N3        29.95S
EMPORIA*       CLOUDY    54  54 100 NW8       29.96R FOG
$$

VAZ088>098-291000-
SOUTHEAST VIRGINIA

CITY           SKY/WX    TMP DP  RH WIND       PRES   REMARKS
NORFOLK        CLOUDY    55  52  89 N12       29.94S FOG
VIRGINIA BEACH DRIZZLE   57  52  83 N14       29.92S FOG
NORFOLK NAVAL  CLOUDY    56  54  93 NE10      29.96S
WEST POINT*    CLOUDY    52  51  98 N3        29.98S
SALUDA*        CLOUDY    51  51 100 N3        29.96S
NEWPORT NEWS   CLOUDY    55  54  96 N5        29.96R FOG
LANGLEY AFB    CLOUDY    55  54  94 NE12      29.94F
FORT EUSTIS    FOG       55  55 100 NE5       29.93F VSB 1
WILLIAMSBURG*  CLOUDY    55  55 100 CALM      29.96F
HR EXEC AP*    CLOUDY    57  54  88 NE7       29.96F
FRANKLIN*      CLOUDY    55  54  97 NE10      29.93F FOG
US460-WAKEFLD  CLOUDY    54  52  93 VRB3      29.94F FOG
$$

VAZ020-022-025-037-045-291000-
WEST CENTRAL AND SOUTHWEST VIRGINIA

CITY           SKY/WX    TMP DP  RH WIND       PRES   REMARKS
STAUNTON*      CLOUDY    52  52 100 CALM      29.99R FOG
WAYNESBORO*    CLOUDY    51  50  96 MISG      29.97S
HOT SPRINGS VA FOG       56  56 100 W9        29.99R VSB<1/4
LYNCHBURG      CLOUDY    53  53 100 CALM      30.00R
DANVILLE       CLOUDY    57  57 100 N6        29.98R FOG
SOUTH BOSTON*  CLOUDY    56  55  95 N3        29.98R
MARTINSVILLE   CLOUDY    56  55  94 CALM      30.01R
ROANOKE        CLOUDY    57  57 100 SE5       29.99S FOG
BLACKSBURG     CLOUDY    57  57 100 CALM      30.02R FOG
DUBLIN*        FAIR      56  56 100 CALM      30.01R
MARION*        FAIR      61  47  59 W9        30.04R
HILLSVILLE*    FAIR      60  53  77 CALM      30.00R
RICHLANDS*     FAIR      58  30  34 W6        30.04R
WISE*          FAIR      54  45  71 CALM      30.05S
ABINGDON*      FAIR      59  53  81 CALM      30.03R
$$

MDZ021>025-VAZ099-100-291000-
SOUTHERN MARYLAND AND THE DELMARVA PENINSULA

CITY           SKY/WX    TMP DP  RH WIND       PRES   REMARKS
PATUXENT RIVER CLOUDY    50  47  89 NE10      29.99R
BAY BRIDGE APT NOT AVBL
LEONARDTOWN    CLOUDY    48  46  93 CALM      30.01R
DOVER          LGT RAIN  46  46 100 NE7       30.00S FOG
GEORGETOWN     CLOUDY    49  48  97 NE10      30.00R FOG
EASTON         CLOUDY   N/A N/A N/A NE7       30.04S FOG
CAMBRIDGE      CLOUDY    46  46 100 NE6       29.99S
SALISBURY      CLOUDY    49  48  97 NE8       29.98R
OCEAN CITY     CLOUDY    50  49  96 NE12      29.98R FOG
WALLOPS ISLAND CLOUDY    51  50  96 N14G20    29.97R FOG
ACCOMACK*      CLOUDY    50   7  17 NE7       29.96R HAZE
$$

NCZ012>017-030>032-291000-
NORTH CENTRAL AND EASTERN NORTH CAROLINA

CITY           SKY/WX    TMP DP  RH WIND       PRES   REMARKS
ROANOKE RAPIDS CLOUDY    55  55 100 CALM      29.93S
RALEIGH        CLOUDY    62  60  93 N5        29.94S
ELIZABETH CITY CLOUDY    57  56  96 N14       29.93R
AHOSKIE*       CLOUDY    57  56  96 NE5       29.92F
EDENTON*       DRIZZLE   59  59 100 N10       29.94R
CURRITUCK*     CLOUDY    57  57 100 N6        29.94R
KILL DEVIL HLS PTCLDY    57  57 100 CALM      29.87F FOG
MANTEO         NOT AVBL
CAPE HATTERAS  CLOUDY    63  62  97 NE9       29.87S
TARBORO*       CLOUDY    59  58  96 NE3       29.93S
GOLDSBORO      CLOUDY    66  66 100 N7        29.88S FOG
WASHINGTON     FOG       60  60  98 N7G17     29.90R VSB 3/4
GREENVILLE     CLOUDY    59  59 100 NE12      29.93S FOG
NEW BERN       PTCLDY    65  63  93 N5        29.88F
WILMINGTON     PTCLDY    69  66  90 SW8       29.88F
$$

VAZ048-291000-
ELSEWHERE

CITY           SKY/WX    TMP DP  RH WIND       PRES   REMARKS
HARRISBURG PA  DRIZZLE   45  43  93 E5        30.03R FOG
BALTIMORE      DRIZZLE   46  44  93 NE8       30.01R FOG
ANNAPOLIS      CLOUDY    48  46  93 MISG      30.00S FOG
ANDREWS AFB    CLOUDY    46  45  96 NE5       30.00R FOG
PHILADELPHIA   CLOUDY    47  41  80 NE10      30.05S
HENDERSON NC   CLOUDY    59  59 100 NW6       29.95S FOG
GREENSBORO     FOG       60  60 100 N5        29.96S VSB 1/2
ROCKY MOUNT    CLOUDY    59  59 100 N7        29.92S
$$

VAZ100-291000-
MARINE

STATION/POSITION TIME  TEMP    WIND        PRES    WAVE   SWELL
                       AIR SEA DIR/SP/G            HT/PER HT/PER
                 (UTC) (F)     (DEG/KT/KT) (MB)    (FT/S) (FT/S)
BRANDYWINE LGT   0800   48      70/ 13/ 15 1015.9R
CAPE MAY NJ      0800   48 57   50/  5/ 11 1015.5R
LEWES DE         0800   50 54   70/ 14/ 16 1015.5F
15NM E FENWICK I 0850   50 52              1014.2S   6/ 6
OCEAN-CITY-INLET 0800   50 53   40/  5/ 10 1014.1F
WACHAPREAGUE VA  0800   52 59   30/ 14/ 17 1013.5S
THOMAS POINT MD  0900   48 57   50/ 11/ 13 1017.0F
GOOSES REEF MD   0900   50 57   70/ 10/ 12 1016.7R   1/ 2
COVE POINT MD    0800   49      60/  9/ 12 1015.8R
SOLOMONS ISLAND  0800   50 60   40/  5/  7   N/A
BISHOPS HEAD MD  0800   50 57   30/ 15/ 17 1014.0R
POTOMAC MD       0900   51 59   30/ 10/ 14 1014.2R   1/ 2
CAMBRIDGE MD     0800   50 61   60/  9/ 13 1014.8R
LEWISETTA VA     0800   52 60   40/  5/  8 1014.7R
RAPPAHANNOCK LGT 0800           20/ 14/ 16 1014.4R
STINGRAY PT      0900   54 61   30/ 12/ 16 1014.8R   2/ 3
YORK RVR RNG VA  0800   55      20/ 12/ 14 1013.5R
YORKTOWN VA      0800   55 62   10/  7/ 10 1013.9R
JAMESTOWN VA     0900   53 67   60/  6/  8   N/A     0
DOMINION TERM VA 0800   56      50/  4/  8 1013.9R
KIPTOPEKE VA     0800      60   40/  7/ 12   N/A
CHES BAY BRIDGE  0800   54 59  360/ 13/ 15 1013.4R
CAPE HENRY VA    0800   54      20/ 16/ 18   N/A
CHESAPEAKE LGHT  0800   53      30/ 18/ 19 1013.4R
WILLOUBY STN VA  0800   56      10/  9/ 11 1014.8R
CAPE HENRY BUOY  0812      56                N/A     4/ 5
CAPE CHARLES BUO 0826      56                N/A     4/ 5   2/11
OFFSHORE WE BUOY 0821      55                N/A     4/ 5   2/10
64NM E OF VA BCH 0850   55 54   20/  8/ 10 1010.9F   4/ 6   3/ 6
DUCK PIER NC     0800   58 67  110/  3/  4 1011.5F
44100 DUCK FRF   0824      58                N/A     3/ 4
44056 DUCK FRF   0811      58                N/A     3/ 5
OREGON INLET NC  0800   58 68   10/  9/ 11 1011.9F
HATTERAS NC      0800   65 70   10/ 16/ 19 1011.5R
DIAMOND SHLS NC  0850   66 71   10/ 10/ 14 1011.3S   3/ 6   2/ 6
CAPE LOOKOUT NC  0800   69     220/  6/  8 1011.2F
$$



USA.gov is the U.S. government's official web portal to all federal, state and local government web resources and services.